Location: Buenos Aires
(34.6076°S, 58.4371°W)
Time: 11:42:22
(UTC-03:00)

Envisat - Pass Details

Date: 27 June 2021
Orbit: 764 x 766 km, 98.2° (Epoch: 03 August)

Event Time Altitude Azimuth Distance (km) Brightness Sun altitude
Rises 05:27:13 0° 15° (NNE) 3,217 6.5 -30.9°
Reaches altitude 10° 05:29:30 10° 15° (NNE) 2,299 5.7 -30.4°
Enters shadow 05:32:52 43° 16° (NNE) 1,067 3.8 -29.7°
